Wetbulb
68.74 68.85 68.94 69.28 69.87 70.11 69.80 69.28 68.83 68.87 68.13 68.33 68.13 67.59 67.54 67.88 68.24 67.72 67.09 66.28 67.18 67.16 68.05 67.87 67.74 68.03 66.64 66.85 64.22 63.96 63.48 63.39 61.20 62.13 63.60 64.22 65.49 66.16 66.61 66.43 65.59 65.93 66.54
67.05 66.69 66.38 66.63 66.98 66.92 67.00 67.07 68.35 68.35 67.99 67.25 67.21 67.07 67.00 67.16 66.65 66.81 66.56 68.06 67.10 66.89 67.03 67.14 66.87 67.67 65.82 65.49 64.83 63.99 64.58 64.29 62.17 60.03 62.01 63.28 64.00 65.64 65.32 64.94 65.14 65.78 65.17
67.21 67.28 67.43 67.14 66.71 66.37 67.00 67.68 66.49 66.06 65.90 66.89 66.76 65.50 64.38 64.61 65.19 65.26 65.06 65.75 65.69 65.64 66.40 65.19 64.96 63.92 61.64 63.07 63.46 62.86 64.13 64.67 64.51 62.02 62.13 62.78 63.15 63.01 64.26 64.01 64.28 64.58 64.12
67.14 66.94 66.17 65.99 65.72 65.59 65.57 65.70 65.30 65.48 65.47 64.82 63.95 63.09 62.01 61.49 61.83 61.62 61.57 60.74 60.03 59.25 60.38 61.37 61.86 60.94 59.87 59.87 57.57 57.19 57.89 59.41 60.34 59.94 60.03 60.90 62.22 63.24 62.29 61.18 60.81 62.40 62.59
66.49 65.61 64.91 64.60 63.98 63.54 62.63 61.91 61.44 61.58 62.84 64.17 63.18 62.70 62.02 60.86 59.13 58.78 58.61 58.50 57.86 56.79 57.71 59.04 58.63 58.79 58.78 57.81 55.79 54.78 53.78 52.76 52.72 52.13 53.99 56.03 57.40 58.51 58.70 60.44 59.40 60.84 61.82
65.03 63.93 63.82 63.34 62.12 60.82 60.15 59.85 59.12 59.14 59.25 60.47 61.15 60.05 59.59 58.83 60.41 58.92 56.65 54.80 54.09 53.43 52.70 53.76 56.40 54.83 54.33 55.03 55.04 54.66 54.08 52.68 51.42 50.74 50.99 50.63 52.17 54.68 56.25 57.03 57.58 57.72 56.99
64.56 64.09 63.36 62.72 61.36 60.11 58.86 58.25 57.65 57.46 57.30 57.32 56.57 57.43 57.43 57.48 58.95 58.72 55.97 52.95 51.58 50.97 51.24 51.89 52.93 52.53 52.87 53.66 53.35 53.05 52.23 52.64 52.77 52.12 49.65 49.68 50.28 52.19 53.62 52.52 53.70 54.57 54.33
64.38 64.19 63.60 62.01 60.16 58.70 57.56 56.45 56.02 55.72 55.08 54.52 54.97 54.50 55.57 57.34 58.24 57.78 54.95 53.02 51.84 51.12 51.19 51.41 51.77 51.77 51.86 54.00 53.49 52.04 51.39 51.01 50.48 50.04 50.19 49.80 50.72 51.73 52.87 52.99 52.60 53.02 53.68
63.51 62.86 62.23 60.81 58.74 57.47 56.10 55.16 54.51 53.75 54.26 53.49 54.36 55.05 54.68 54.98 55.69 57.34 53.96 51.80 51.04 50.52 50.50 50.44 52.25 51.45 51.42 52.69 51.43 49.89 49.69 50.03 51.34 51.88 52.48 52.70 52.90 53.09 53.19 52.11 50.18 49.35 48.31
60.43 59.57 59.16 58.57 57.35 55.82 54.96 54.14 53.65 53.71 53.69 53.04 53.64 54.00 54.45 53.27 54.07 56.22 54.29 51.40 49.80 48.66 49.99 50.46 50.54 51.16 51.66 51.34 50.26 48.94 47.52 48.44 48.94 49.50 50.31 50.96 51.58 51.14 52.04 51.96 50.61 48.21 48.24
58.78 58.07 57.71 57.43 56.02 54.39 52.87 53.24 53.10 53.10 53.05 52.91 51.98 49.79 50.05 50.46 52.29 53.94 51.45 49.41 48.83 48.76 48.50 48.57 49.14 50.18 50.71 50.41 50.64 49.84 48.69 49.96 50.72 50.23 49.91 49.71 49.60 49.79 50.04 50.68 50.84 49.73 48.72
57.32 55.72 54.91 55.27 56.49 53.82 52.97 52.79 52.83 52.63 52.75 52.57 49.70 49.28 48.72 48.99 52.71 52.20 51.34 50.93 50.89 48.49 48.33 48.57 48.71 48.97 49.33 49.70 50.12 50.01 50.50 51.00 49.95 49.03 48.08 47.62 48.04 48.49 49.61 50.71 51.60 51.58 51.78
55.83 54.51 54.23 53.98 54.21 53.78 53.63 53.30 52.20 52.22 51.57 51.64 50.88 48.96 47.64 47.64 48.51 49.19 49.72 50.65 49.35 49.86 49.35 49.62 50.98 49.43 48.83 49.00 49.03 49.63 50.42 49.39 47.47 46.35 46.28 47.01 48.14 49.39 50.35 50.63 51.72 52.20 52.37
54.45 53.81 53.34 53.26 51.73 51.20 51.15 51.89 52.00 51.13 50.41 49.69 49.16 47.52 46.60 46.65 47.21 48.01 48.55 48.44 47.83 48.09 48.55 48.06 48.93 48.99 48.48 48.01 47.74 47.98 47.70 46.54 45.87 46.10 47.32 48.78 49.97 49.74 49.63 50.56 49.35 50.07 49.19
51.83 51.03 50.89 49.20 49.01 48.92 48.45 47.72 48.96 50.48 49.82 49.39 48.13 47.70 46.41 46.29 47.16 46.95 46.69 47.96 48.07 47.26 46.83 46.48 45.76 46.46 46.23 46.83 47.44 48.51 49.30 48.27 46.37 46.51 46.25 46.99 47.48 48.55 48.63 50.24 48.88 48.18 46.57
49.74 49.84 49.49 48.41 48.99 48.27 47.96 47.47 46.97 45.94 45.84 44.96 44.43 46.77 47.94 46.26 44.92 44.09 42.87 42.78 43.34 44.28 45.27 45.05 45.87 46.16 46.06 46.50 47.33 47.10 47.75 48.39 48.02 47.98 47.37 46.75 46.32 46.61 47.32 48.51 48.46 46.31 45.11
50.07 50.61 50.27 50.24 50.02 48.91 47.06 47.42 47.65 48.08 45.78 43.99 43.52 43.78 43.81 44.81 43.10 42.09 41.64 41.78 42.22 43.54 45.54 46.45 46.34 46.84 47.15 46.87 46.76 46.77 46.59 47.69 48.31 47.76 47.28 47.24 46.92 46.51 46.64 46.75 47.24 46.83 45.97
50.70 50.07 51.22 51.41 51.22 49.49 47.59 47.18 46.88 47.22 47.41 47.78 46.27 45.09 43.99 42.26 41.98 41.68 41.27 41.58 45.97 47.06 46.30 46.57 47.54 47.56 47.08 47.33 47.42 47.05 46.85 47.09 47.46 47.70 47.70 47.53 47.48 46.58 45.98 45.78 46.14 45.64 45.92
51.37 50.39 50.42 51.20 49.75 48.31 48.21 47.31 47.74 47.37 46.98 46.59 46.75 45.90 45.46 42.13 41.31 41.34 41.37 44.07 45.40 46.09 47.44 48.10 48.63 48.03 48.13 48.35 48.36 48.37 48.21 47.61 47.71 47.71 47.69 47.78 47.15 46.05 45.98 46.28 46.08 45.54 45.66
51.92 52.96 51.76 49.35 48.33 47.88 47.79 47.78 47.19 46.85 46.28 46.04 45.84 46.42 48.10 45.72 46.81 46.90 46.93 45.36 46.30 46.89 47.75 48.00 48.14 48.24 48.25 48.36 48.51 48.58 48.12 47.95 48.14 48.07 47.67 46.90 45.47 43.56 41.64 45.68 46.20 45.42 45.13
51.50 51.17 50.65 48.33 48.26 47.89 47.81 47.51 47.14 46.48 46.04 45.88 45.97 47.03 44.14 45.43 46.34 47.38 47.63 48.04 48.02 48.57 48.60 48.54 48.46 48.54 48.67 48.79 49.17 48.89 48.28 47.91 48.00 47.77 46.45 46.04 43.31 41.32 42.40 46.68 46.43 46.28 45.69
51.96 50.43 48.13 48.14 48.02 47.73 47.50 47.07 46.90 46.45 46.18 45.77 46.60 47.30 43.27 46.39 47.67 47.76 48.37 48.67 49.52 49.77 49.88 48.87 47.97 48.04 48.52 48.64 48.52 48.31 47.60 47.16 47.44 47.52 46.72 45.61 43.12 41.84 44.07 46.43 46.05 45.68 45.29
51.40 50.23 47.95 47.76 48.13 47.71 47.67 47.74 46.88 46.57 46.52 46.49 46.68 46.90 47.65 47.84 48.46 48.59 48.47 49.13 49.82 49.69 49.68 49.07 48.40 47.98 48.55 48.74 49.09 48.84 47.38 46.88 47.61 47.99 46.57 44.74 42.48 41.44 44.27 45.87 45.66 45.13 44.92
51.55 48.56 48.03 47.73 47.76 47.83 47.67 47.71 47.54 44.72 45.98 47.10 47.74 48.04 48.28 48.91 49.06 48.89 49.22 49.61 49.45 49.37 49.35 48.80 48.62 48.21 47.81 47.41 47.73 47.68 47.52 47.40 47.65 47.65 47.09 44.23 42.08 41.37 42.05 45.65 45.57 45.23 45.23
48.01 47.97 48.13 47.88 47.64 47.71 47.85 47.56 47.52 47.85 47.96 48.17 48.31 48.34 48.96 49.02 48.89 49.26 49.15 49.21 49.19 48.99 48.66 48.39 47.25 46.82 46.70 46.45 46.13 45.81 42.55 38.65 43.12 43.51 46.26 43.83 42.34 41.74 41.66 45.01 45.62 45.37 45.02
48.28 47.86 47.72 47.29 47.19 46.99 46.85 46.99 47.56 47.85 48.11 48.64 48.46 48.75 48.73 48.23 48.33 48.51 48.73 48.85 48.59 47.97 47.56 45.68 45.36 45.12 45.27 44.95 41.07 35.26 32.32 32.24 36.07 35.35 43.54 43.03 41.73 41.29 41.53 44.38 45.31 45.01 44.18
MSLP
1011.65 1011.91 1011.98 1012.13 1012.25 1012.47 1012.93 1013.15 1012.95 1013.02 1013.13 1013.23 1013.11 1012.95 1012.93 1013.18 1013.32 1013.50 1013.69 1013.66 1013.56 1013.44 1013.62 1013.56 1013.55 1013.46 1013.25 1013.19 1013.20 1012.99 1013.52 1014.01 1014.22 1014.10 1014.01 1013.78 1013.63 1013.50 1013.32 1013.34 1013.26 1013.15 1012.99
1011.31 1011.67 1011.85 1012.02 1012.53 1012.94 1013.06 1013.55 1013.36 1013.37 1013.41 1013.31 1013.31 1013.45 1013.51 1013.70 1013.71 1013.80 1013.87 1013.83 1013.84 1013.70 1013.80 1013.73 1013.71 1013.55 1013.63 1013.52 1013.21 1013.01 1013.82 1014.32 1014.51 1014.33 1013.98 1013.74 1013.72 1013.45 1013.42 1013.29 1012.95 1012.75 1012.75
1011.28 1011.35 1011.86 1012.51 1013.00 1013.46 1013.89 1014.29 1014.07 1013.97 1014.01 1013.92 1013.90 1014.02 1014.14 1014.14 1014.17 1014.20 1014.34 1014.26 1014.21 1014.22 1014.22 1014.16 1014.10 1014.12 1014.15 1014.10 1013.85 1013.93 1014.35 1014.41 1014.50 1014.58 1014.35 1014.01 1013.69 1013.45 1013.20 1013.06 1012.88 1012.67 1012.42
1011.46 1012.13 1012.70 1012.97 1013.28 1013.69 1014.17 1014.26 1014.31 1014.34 1014.36 1014.49 1014.61 1014.65 1014.63 1014.63 1014.75 1014.85 1014.84 1014.86 1014.93 1014.96 1014.84 1014.80 1014.80 1014.67 1014.57 1014.49 1014.65 1014.81 1015.08 1014.76 1014.65 1014.42 1014.26 1013.96 1013.81 1013.57 1013.42 1012.97 1012.67 1012.56 1012.19
1012.20 1012.74 1013.33 1013.32 1013.65 1014.00 1014.36 1014.65 1014.74 1015.00 1014.95 1014.89 1014.92 1014.97 1015.01 1015.02 1015.12 1015.11 1015.09 1015.12 1015.20 1015.27 1015.28 1015.24 1015.21 1015.17 1015.17 1015.09 1015.20 1015.40 1015.46 1015.16 1015.05 1014.93 1014.53 1014.19 1013.87 1013.58 1013.49 1013.23 1012.91 1012.54 1012.08
1012.47 1013.24 1013.49 1013.78 1013.93 1014.23 1014.54 1014.69 1014.80 1014.96 1015.17 1015.27 1015.42 1015.42 1015.42 1015.37 1015.38 1015.39 1015.50 1015.70 1015.90 1015.94 1015.95 1015.94 1015.89 1015.83 1015.83 1015.80 1015.80 1015.77 1015.75 1015.57 1015.56 1015.47 1015.18 1014.85 1014.35 1013.95 1013.76 1013.55 1013.29 1012.75 1012.16
1012.29 1012.99 1013.48 1013.72 1013.92 1014.29 1014.87 1015.10 1015.26 1015.44 1015.44 1015.75 1015.93 1015.91 1015.88 1015.76 1015.62 1015.65 1015.81 1015.99 1016.22 1016.43 1016.54 1016.51 1016.37 1016.42 1016.33 1016.20 1016.05 1015.91 1015.75 1015.61 1015.52 1015.42 1015.22 1014.99 1014.56 1014.21 1014.07 1013.73 1013.29 1012.99 1012.51
1012.41 1013.25 1013.48 1013.69 1014.16 1014.57 1014.93 1015.19 1015.32 1015.56 1015.75 1015.90 1016.03 1016.02 1015.89 1015.77 1015.79 1015.93 1016.15 1016.39 1016.63 1016.73 1016.74 1016.78 1016.78 1016.70 1016.52 1016.26 1015.99 1015.75 1015.56 1015.33 1015.14 1014.92 1014.70 1014.48 1014.29 1013.96 1013.74 1013.49 1013.21 1012.82 1012.20
1012.84 1013.33 1013.14 1013.66 1014.32 1014.64 1014.92 1015.12 1015.39 1015.71 1015.87 1015.96 1015.96 1016.01 1016.08 1015.99 1015.94 1016.01 1016.19 1016.54 1016.83 1016.91 1016.91 1016.82 1016.75 1016.58 1016.42 1016.28 1016.00 1015.53 1015.16 1014.61 1014.40 1014.20 1013.93 1013.65 1013.48 1013.36 1013.19 1012.99 1012.51 1012.24 1011.42
1013.45 1013.60 1013.53 1013.89 1014.34 1014.71 1015.06 1015.37 1015.67 1015.86 1016.05 1016.10 1016.13 1016.18 1016.22 1016.17 1015.97 1015.89 1016.13 1016.50 1016.68 1016.81 1016.76 1016.61 1016.46 1016.36 1016.03 1015.76 1015.61 1015.27 1014.68 1014.11 1014.01 1013.70 1013.47 1013.12 1012.87 1012.65 1012.47 1012.21 1011.86 1011.65 1011.24
1013.36 1013.62 1013.94 1014.11 1014.58 1014.91 1015.23 1015.55 1015.87 1016.01 1016.01 1016.23 1016.32 1016.45 1016.44 1016.45 1016.29 1016.18 1016.29 1016.58 1016.80 1016.79 1016.69 1016.46 1016.26 1016.05 1015.73 1015.35 1015.14 1014.88 1014.45 1014.00 1013.45 1013.16 1012.87 1012.55 1012.19 1011.87 1011.51 1011.35 1011.15 1010.94 1010.57
1013.58 1014.16 1014.47 1014.70 1015.02 1015.26 1015.34 1015.74 1015.94 1015.94 1016.04 1016.32 1016.43 1016.52 1016.59 1016.59 1016.52 1016.58 1016.57 1016.64 1016.75 1016.80 1016.59 1016.45 1016.22 1015.81 1015.46 1015.08 1014.68 1014.20 1013.91 1013.57 1013.00 1012.64 1012.25 1011.80 1011.48 1011.12 1010.71 1010.43 1010.24 1010.11 1009.89
1013.86 1014.41 1014.82 1015.08 1015.22 1015.35 1015.64 1015.80 1015.83 1015.98 1016.17 1016.25 1016.39 1016.51 1016.67 1016.86 1016.83 1016.76 1016.65 1016.62 1016.61 1016.57 1016.37 1016.10 1015.66 1015.21 1014.78 1014.39 1013.94 1013.54 1013.21 1012.87 1012.57 1012.21 1011.69 1011.18 1010.78 1010.42 1010.13 1009.88 1009.49 1009.28 1009.16
1014.61 1014.88 1015.17 1015.41 1015.51 1015.57 1015.78 1015.88 1015.88 1015.99 1016.12 1016.25 1016.44 1016.68 1016.83 1016.85 1016.92 1016.88 1016.72 1016.55 1016.36 1016.26 1016.01 1015.58 1015.14 1014.70 1014.20 1013.80 1013.36 1012.93 1012.54 1012.29 1011.98 1011.56 1011.10 1010.48 1010.02 1009.68 1009.24 1009.03 1008.88 1008.58 1008.46
1014.94 1015.40 1015.47 1015.50 1015.90 1015.93 1015.97 1016.01 1015.84 1015.85 1015.99 1016.10 1016.34 1016.57 1016.82 1016.88 1016.74 1016.64 1016.58 1016.41 1016.18 1015.94 1015.88 1015.41 1014.82 1014.14 1013.66 1013.06 1012.53 1012.13 1011.69 1011.40 1011.16 1010.83 1010.49 1010.01 1009.53 1009.14 1008.72 1008.43 1008.37 1008.23 1008.05
1014.68 1015.68 1015.80 1015.94 1016.09 1016.12 1016.02 1016.13 1016.12 1015.99 1015.86 1016.06 1016.22 1016.38 1016.58 1016.54 1016.48 1016.42 1016.25 1015.96 1015.61 1015.48 1015.58 1014.96 1014.23 1013.63 1013.02 1012.43 1011.78 1011.36 1010.98 1010.64 1010.23 1009.85 1009.53 1009.25 1008.92 1008.62 1008.24 1007.90 1007.81 1007.78 1007.54
1015.01 1015.71 1015.95 1016.06 1016.08 1016.15 1016.12 1016.23 1016.21 1016.11 1016.09 1016.26 1016.30 1016.33 1016.41 1016.34 1016.18 1015.91 1015.57 1015.31 1014.90 1015.10 1014.80 1014.11 1013.57 1012.93 1012.22 1011.64 1011.14 1010.83 1010.38 1009.90 1009.46 1009.08 1008.77 1008.46 1008.14 1007.82 1007.57 1007.26 1007.02 1006.93 1006.69
1015.28 1016.02 1015.88 1015.65 1015.71 1015.98 1015.99 1015.97 1016.03 1016.22 1016.26 1016.24 1016.02 1016.08 1015.86 1015.73 1015.55 1015.23 1014.83 1015.00 1014.49 1014.03 1013.88 1013.25 1012.61 1011.99 1011.35 1010.79 1010.31 1009.87 1009.40 1008.95 1008.62 1008.35 1008.03 1007.63 1007.23 1006.93 1006.58 1006.33 1006.16 1006.05 1005.99
1015.33 1015.38 1015.66 1015.40 1015.30 1015.64 1015.70 1015.74 1015.87 1016.08 1016.15 1016.16 1016.09 1015.75 1015.18 1015.10 1014.96 1014.38 1014.21 1014.49 1013.92 1013.34 1012.72 1012.15 1011.52 1010.94 1010.33 1009.78 1009.28 1008.86 1008.48 1008.08 1007.72 1007.42 1007.08 1006.71 1006.35 1006.09 1005.61 1005.14 1005.24 1005.32 1005.40
1015.01 1014.75 1015.58 1015.24 1014.97 1015.29 1015.50 1015.80 1015.82 1015.85 1015.86 1015.82 1015.76 1015.35 1014.91 1015.03 1014.59 1014.04 1013.60 1013.41 1012.92 1012.31 1011.70 1011.18 1010.47 1009.86 1009.28 1008.73 1008.22 1007.86 1007.44 1007.00 1006.58 1006.29 1006.03 1005.83 1005.69 1005.54 1005.20 1004.52 1004.49 1004.57 1004.61
1014.70 1014.87 1015.31 1015.30 1014.85 1015.08 1015.45 1015.65 1015.63 1015.65 1015.61 1015.52 1015.23 1014.83 1014.56 1014.92 1014.07 1013.39 1012.81 1012.30 1011.81 1011.23 1010.68 1010.08 1009.43 1008.82 1008.17 1007.58 1007.17 1006.71 1006.23 1005.71 1005.35 1005.10 1004.97 1004.96 1005.04 1004.92 1004.50 1003.75 1003.85 1003.91 1004.04
1014.97 1015.17 1015.23 1014.99 1015.01 1015.16 1015.42 1015.67 1015.56 1015.45 1015.25 1015.11 1014.67 1014.26 1014.01 1013.85 1013.17 1012.58 1011.99 1011.45 1010.85 1010.32 1009.73 1009.16 1008.42 1007.67 1006.95 1006.48 1005.91 1005.37 1004.84 1004.35 1003.94 1003.73 1003.71 1003.90 1004.11 1004.08 1003.66 1003.19 1003.24 1003.33 1003.45
1015.11 1015.09 1014.90 1014.60 1014.98 1015.22 1015.48 1015.39 1015.18 1014.97 1014.79 1014.57 1014.27 1013.92 1013.40 1012.87 1012.32 1011.79 1011.26 1010.59 1009.98 1009.38 1008.72 1008.07 1007.33 1006.61 1005.90 1005.13 1004.26 1003.48 1002.84 1002.39 1002.10 1002.08 1002.20 1002.49 1002.87 1003.01 1002.87 1002.48 1002.57 1002.65 1002.80
1014.50 1014.71 1014.71 1014.56 1014.98 1015.21 1015.26 1015.03 1014.77 1014.49 1014.35 1014.06 1013.70 1013.28 1012.74 1012.16 1011.62 1011.07 1010.54 1009.89 1009.27 1008.52 1007.78 1007.08 1006.36 1005.41 1004.08 1003.11 1002.41 1001.90 1001.41 1001.00 1000.87 1000.85 1000.91 1001.29 1001.75 1001.97 1002.08 1001.80 1001.93 1002.09 1002.24
1014.28 1014.25 1014.40 1014.59 1014.92 1015.13 1015.00 1014.80 1014.42 1014.06 1013.75 1013.42 1013.03 1012.64 1012.13 1011.63 1011.08 1010.45 1009.84 1009.26 1008.59 1007.82 1006.89 1006.00 1004.96 1003.82 1002.80 1001.95 1001.03 1000.33 1000.11 999.81 999.74 999.92 999.92 1000.33 1000.88 1001.26 1001.44 1001.26 1001.31 1001.60 1001.82
1014.09 1013.88 1014.11 1014.48 1014.79 1014.75 1014.63 1014.27 1013.76 1013.45 1013.23 1012.87 1012.48 1012.13 1011.75 1011.21 1010.60 1009.99 1009.35 1008.72 1008.01 1007.08 1006.25 1005.21 1004.11 1003.11 1002.28 1001.32 1000.87 1000.34 999.59 999.30 999.34 999.05 999.39 999.80 1000.26 1000.66 1000.93 1000.82 1000.91 1001.24 1001.48
Wind_Speed
9 7 8 7 6 5 4 3 3 3 2 3 4 6 6 5 4 3 2 1 2 2 1 1 1 0 1 3 2 3 2 1 2 1 2 1 2 3 4 3 3 4 4
6 9 10 10 8 6 6 4 5 5 4 5 5 6 6 5 5 3 4 4 5 5 3 4 4 2 3 3 2 5 2 0 1 3 2 2 3 2 3 4 4 4 5
9 11 11 10 9 8 7 6 6 6 5 5 6 7 6 6 6 6 5 6 7 7 4 4 6 5 5 5 7 6 4 3 2 2 3 2 3 2 3 2 3 5 5
11 11 10 8 8 7 6 7 7 6 6 6 6 6 6 6 6 6 6 6 6 7 7 8 8 8 7 6 7 7 5 4 4 4 5 5 3 2 3 4 5 2 5
10 9 8 8 8 8 7 6 6 6 6 6 5 5 4 5 5 4 5 5 6 6 6 6 6 10 14 12 5 4 3 4 3 5 6 7 6 7 7 4 5 7 7
9 9 7 7 8 7 6 5 6 5 5 5 6 5 5 5 10 11 8 6 6 5 5 5 6 9 10 11 11 11 9 5 4 3 4 7 8 7 7 5 6 6 6
10 8 7 7 7 7 6 5 5 5 4 5 5 4 4 3 8 9 10 5 5 4 4 4 4 5 7 6 8 9 9 10 8 5 6 7 8 7 8 9 8 7 8
8 7 6 7 6 6 6 5 4 3 4 3 3 3 2 1 3 6 7 4 4 3 3 3 3 4 6 8 7 8 9 9 8 7 8 8 8 9 9 10 11 11 10
6 5 8 8 6 5 5 5 4 3 2 2 1 3 4 3 4 3 6 3 2 1 2 2 3 5 9 13 9 10 11 12 10 14 15 17 17 18 16 9 10 9 10
5 4 6 6 6 6 5 4 2 2 2 1 3 2 3 3 9 4 4 2 1 2 3 5 9 9 14 14 9 10 12 12 10 10 10 11 12 12 17 12 9 10 9
5 5 6 5 6 5 4 3 3 2 2 3 3 3 4 5 5 5 6 3 2 2 4 6 6 13 15 15 14 10 12 13 15 11 9 9 9 9 8 8 9 8 9
6 6 6 5 3 3 5 2 2 3 4 3 1 1 2 4 3 7 7 4 2 2 4 5 7 14 15 16 15 16 19 17 9 9 9 9 8 8 8 7 9 8 9
6 6 4 4 3 3 2 1 1 1 1 1 1 1 2 2 1 3 2 2 2 3 4 9 15 15 14 12 16 18 17 9 8 8 9 10 9 9 10 8 9 10 10
6 5 3 3 4 2 1 0 1 1 1 1 0 0 1 2 2 2 2 3 5 5 9 8 13 16 16 14 11 10 7 6 6 7 9 10 10 9 8 7 6 6 5
5 3 3 4 3 3 2 1 1 1 1 2 1 2 2 3 4 6 5 4 5 6 7 6 7 8 9 9 9 9 8 6 6 6 7 8 8 8 9 7 5 6 8
7 3 2 3 1 1 1 2 5 5 6 2 7 4 3 8 8 9 11 12 13 7 3 7 9 9 9 10 8 8 8 11 8 8 8 8 8 8 8 8 7 7 7
6 3 2 2 2 2 2 3 2 2 4 0 5 7 8 9 9 11 13 12 14 4 5 8 9 9 9 9 8 8 9 8 10 9 9 9 9 9 10 8 8 8 8
5 4 2 3 2 2 3 4 3 2 2 3 5 7 10 11 13 14 13 5 8 4 7 8 9 9 9 10 10 10 9 8 7 8 9 9 9 9 10 9 8 8 8
4 2 2 2 1 2 3 3 3 2 3 4 4 5 9 10 11 14 7 5 7 9 9 9 9 10 10 10 10 10 10 10 10 9 10 10 7 8 11 10 9 11 10
2 2 2 2 1 3 2 2 3 3 4 5 6 7 6 3 7 9 7 6 7 8 8 9 10 10 11 11 11 10 10 11 10 10 9 8 7 6 9 11 8 8 7
2 2 4 1 2 3 2 4 3 3 5 6 7 8 12 7 10 10 9 9 8 8 9 9 10 11 11 11 11 11 11 11 11 10 10 8 6 7 9 7 7 7 7
1 1 1 1 2 2 3 3 4 5 6 7 8 8 11 7 8 8 9 9 9 9 9 10 11 12 11 11 12 12 13 13 12 10 9 8 7 7 9 7 6 7 6
3 2 2 2 0 2 4 4 5 5 6 7 7 8 8 8 8 8 9 9 9 10 10 11 12 12 12 13 13 14 14 14 13 11 10 8 7 7 8 6 7 7 6
3 2 2 2 1 2 4 5 5 6 7 7 8 8 8 8 9 10 10 9 10 11 11 12 12 17 17 17 15 14 13 12 11 10 12 7 7 7 6 7 6 7 6
3 3 2 1 2 3 4 5 5 6 6 6 7 7 8 9 9 9 9 9 10 11 14 14 13 18 21 24 23 23 17 17 14 12 7 10 10 9 7 7 6 6 6
3 3 2 0 3 4 5 5 5 5 6 7 7 7 8 9 9 9 9 10 10 12 16 13 17 23 24 17 18 24 21 17 12 10 7 7 7 5 6 7 8 4 4
Wind_Direction
103 121 123 127 116 120 109 106 81 77 63 50 46 45 42 39 45 59 41 28 321 264 255 110 102 4 106 98 106 79 83 157 193 268 258 291 286 331 338 330 298 304 322
96 99 91 85 78 75 73 61 56 63 53 57 47 49 43 43 43 45 42 37 39 61 69 73 35 10 40 36 66 80 60 29 281 255 255 273 253 285 275 289 304 308 313
105 91 87 86 86 79 73 71 62 67 54 53 57 58 50 43 48 53 63 56 51 40 40 33 31 32 37 34 44 46 29 358 310 260 285 226 262 284 294 265 279 297 299
92 93 94 96 95 88 82 71 62 55 65 64 61 65 62 55 53 55 61 60 54 48 47 52 50 51 38 44 47 38 15 10 351 333 311 305 299 292 273 303 303 282 308
108 112 120 114 106 99 87 79 76 55 54 72 76 65 65 66 53 58 55 63 63 60 46 55 51 59 57 52 48 40 30 26 1 345 328 319 317 324 328 334 303 309 297
114 117 110 99 90 82 78 70 66 66 57 60 59 59 50 55 60 72 73 72 64 54 45 35 49 51 38 35 29 24 20 9 350 323 316 305 299 303 309 323 317 313 305
121 115 122 120 110 95 88 82 72 63 66 61 52 51 60 47 78 88 101 102 96 78 64 47 42 23 11 355 346 340 335 331 318 289 267 268 284 287 299 292 284 277 268
117 139 138 111 112 115 106 94 81 70 69 65 48 39 37 17 108 120 105 99 93 81 76 49 20 343 335 335 320 313 306 300 296 286 260 260 259 272 269 272 276 277 274
141 166 133 125 118 110 96 91 82 82 69 56 349 5 8 321 298 205 135 120 96 46 15 347 323 318 318 328 317 303 299 296 298 281 277 282 284 283 276 279 266 268 273
142 136 109 110 114 106 97 85 74 75 77 359 345 341 2 356 5 311 137 120 100 347 329 319 327 326 322 323 320 308 304 300 297 290 285 279 274 273 273 264 264 257 263
124 108 96 103 106 103 97 82 87 62 9 49 64 41 27 11 353 92 106 95 82 342 325 315 315 315 312 310 306 298 286 298 301 295 285 282 283 280 273 258 251 245 248
106 95 82 85 96 102 96 89 65 49 21 45 84 358 19 11 6 111 111 110 127 306 301 304 299 298 292 293 298 287 290 297 292 293 293 286 280 279 281 274 263 251 242
104 102 104 109 102 70 69 9 8 22 299 278 228 277 344 23 8 0 353 357 340 300 293 290 296 297 292 291 289 291 297 287 287 289 290 290 283 279 276 271 272 263 255
119 125 127 120 76 70 89 287 182 209 226 275 297 303 229 255 279 283 284 312 305 302 303 303 303 302 298 295 299 293 280 263 265 273 282 289 292 287 274 261 265 278 284
124 120 109 81 80 109 99 26 352 291 197 120 134 159 182 257 252 225 233 270 278 275 305 299 298 305 307 301 302 296 290 274 272 269 264 274 282 286 282 273 248 272 279
105 116 95 116 129 132 120 84 60 54 67 198 163 172 230 243 259 254 253 259 268 280 278 286 298 297 289 288 294 299 295 293 285 279 266 262 264 269 275 273 260 252 263
111 138 146 157 172 190 167 164 153 357 33 233 242 259 254 257 270 267 267 275 278 291 268 282 287 287 287 288 285 281 283 283 284 281 276 273 264 258 263 260 261 257 263
133 193 203 218 198 187 197 189 172 187 265 296 276 251 261 260 266 274 278 297 289 257 270 275 281 278 282 285 283 279 279 281 279 277 275 276 267 264 254 249 248 249 255
141 139 240 224 178 201 165 156 172 211 242 259 284 285 260 263 275 274 276 245 275 281 281 278 275 274 277 281 278 275 272 273 273 277 275 276 262 276 269 236 240 239 243
173 93 283 240 153 157 152 191 218 240 261 265 272 268 286 311 291 292 283 266 265 267 273 276 277 273 275 276 276 271 270 270 270 271 273 270 279 271 281 249 229 235 234
100 14 316 264 145 156 212 245 262 265 271 280 275 273 271 276 284 285 283 283 272 273 275 274 279 278 276 277 273 269 267 267 264 265 270 267 258 272 280 234 233 229 233
128 287 283 145 160 230 271 286 286 276 271 279 287 291 289 284 279 279 280 277 274 275 274 275 276 277 279 276 273 269 267 265 262 258 253 247 242 251 268 224 222 223 228
213 252 202 148 242 329 302 287 284 270 279 286 289 293 295 290 288 286 283 281 285 287 284 281 281 282 282 279 269 259 256 254 253 247 239 230 226 232 261 221 223 218 224
198 204 168 85 18 315 297 297 296 283 284 290 291 290 290 291 293 290 288 289 293 294 294 293 293 285 280 280 284 281 273 264 254 248 237 216 217 221 250 236 215 221 231
177 159 141 76 326 308 303 292 291 291 294 290 294 298 297 298 296 298 297 299 298 300 299 298 292 289 294 299 291 292 308 292 256 254 226 200 207 218 232 245 196 211 221
172 150 121 37 277 270 269 281 291 299 299 299 300 297 295 297 299 300 303 305 305 307 310 305 304 307 314 323 335 319 310 285 290 234 217 187 192 201 214 250 194 189 208